Orbital Elements at Epoch 2459000.5 (2020-May-31.0) TDB
Reference: JPL 12 (heliocentric ecliptic J2000)
Element | Value | Uncertainty (1-sigma) | Units |
e | .1505907343273265 | 4.9358e-08 | |
a | 2.803542756949068 | 2.2435e-08 | au |
q | 2.381355194462051 | 1.429e-07 | au |
i | 7.971446186136817 | 5.7235e-06 | deg |
node | 146.0441997682899 | 3.7545e-05 | deg |
peri | .7790173880821961 | 4.1997e-05 | deg |
M | 240.612904463682 | 2.0101e-05 | deg |
tp | 2459569.109470405389 (2021-Dec-20.60947041) | 9.9479e-05 | TDB |
period | 1714.585721567116 4.69 | 2.0581e-05 5.635e-08 | d yr |
n | .2099632555384651 | 2.5203e-09 | deg/d |
Q | 3.225730319436086 | 2.5814e-08 | au |
|
| | Orbit Determination Parameters
Additional Information
|